Date,TemperatureHighF,TemperatureAvgF,TemperatureLowF,DewpointHighF,DewpointAvgF,DewpointLowF,HumidityHigh,HumidityAvg,HumidityLow,PressureMaxIn,PressureMinIn,WindSpeedMaxMPH,WindSpeedAvgMPH,GustSpeedMaxMPH,PrecipitationSumIn
2013-1-1,34.2,28.2,15.5,27.8,16.4,3.9,83,62,46,29.91,29.67,8,2,17,0.00
2013-1-2,26.1,15.9,5.9,17.0,6.7,-5.6,85,67,56,30.11,29.88,5,1,10,0.00
2013-1-3,22.7,9.0,-2.6,6.9,-1.5,-7.5,84,64,33,30.14,29.98,3,0,12,0.00
2013-1-4,36.8,21.6,2.6,25.4,15.4,-0.4,94,78,58,29.98,29.78,5,0,17,0.00
2013-1-5,38.7,30.3,16.9,25.2,20.5,14.2,89,68,45,30.25,29.80,6,1,14,0.00
2013-1-6,40.3,27.9,17.0,29.1,23.6,14.3,92,84,63,30.21,29.92,3,0,7,0.01
2013-1-7,33.8,24.6,12.6,26.5,18.5,10.2,96,79,49,30.39,29.94,6,1,10,0.00
2013-1-8,42.9,24.3,9.4,28.2,18.9,7.1,95,82,52,30.36,30.24,5,0,10,0.02
2013-1-9,41.3,28.6,15.2,31.9,24.3,13.3,94,84,63,30.40,29.97,3,0,9,0.55
2013-1-10,43.6,38.6,26.9,30.5,26.1,23.3,87,61,48,30.53,29.99,9,2,20,0.00
2013-1-11,37.9,30.1,20.5,33.8,26.3,18.8,94,86,68,30.51,30.22,1,0,6,0.11
2013-1-12,39.8,35.9,33.2,38.8,34.8,32.2,97,96,94,30.21,30.11,0,0,0,0.02
2013-1-13,43.6,38.4,33.8,42.8,37.5,32.9,97,97,96,30.13,29.96,0,0,4,0.00
2013-1-14,57.2,43.3,37.2,51.3,37.2,27.3,98,81,50,30.25,29.83,5,0,12,0.00
2013-1-15,39.9,33.2,28.0,29.7,26.7,24.4,90,78,56,30.31,30.21,3,0,9,0.00
2013-1-16,34.6,31.4,28.0,32.2,29.2,25.4,95,92,88,30.24,29.80,1,0,5,0.42
2013-1-17,40.3,29.1,21.1,35.4,22.9,10.1,97,79,49,30.10,29.80,5,0,12,0.01
2013-1-18,26.5,17.5,10.7,10.8,2.5,-3.4,84,53,34,30.42,30.05,6,1,18,0.00
2013-1-19,43.7,31.5,16.3,27.9,21.2,9.2,90,67,47,30.35,29.85,6,0,15,0.00
2013-1-20,49.6,37.4,27.4,31.9,24.4,10.7,91,61,31,29.90,29.50,6,2,21,0.00
2013-1-21,27.4,24.0,16.4,20.8,11.8,3.0,87,61,43,30.06,29.78,6,0,15,0.00
2013-1-22,23.5,18.2,8.4,19.7,8.9,-2.3,87,68,39,30.06,29.75,7,1,12,0.00
2013-1-23,13.1,6.9,-0.9,0.3,-8.0,-12.7,77,51,31,30.12,30.04,5,1,15,0.00
2013-1-24,17.0,6.7,-5.0,-5.2,-8.9,-11.2,76,50,31,30.21,30.05,8,2,25,0.00
2013-1-25,21.1,13.5,4.5,9.9,-4.1,-8.5,76,46,30,30.30,30.06,5,1,14,0.00
2013-1-26,21.6,15.0,8.9,10.9,2.5,-6.2,88,60,35,30.21,30.00,7,1,14,0.00
2013-1-27,28.1,18.1,10.7,5.7,2.1,-1.4,70,51,29,30.46,30.20,6,1,14,0.00
2013-1-28,28.8,22.1,15.0,22.8,11.4,0.1,91,65,38,30.44,30.02,1,0,6,0.15
2013-1-29,34.4,29.6,24.1,30.7,26.2,21.1,95,87,79,30.18,30.03,2,0,4,0.04
2013-1-30,54.1,40.9,32.1,53.3,40.0,30.8,97,96,95,30.14,29.42,3,0,16,0.08
2013-1-31,58.2,44.4,29.2,56.9,35.3,15.5,97,72,45,29.54,28.90,9,3,24,0.25